Location: Newark
(43.0000°N, 1.6781°W)
Time: 09:49:42
(UTC+00:00)

AO-7 - Pass Details

Date: 11 December 2022
Orbit: 1440 x 1459 km, 101.9° (Epoch: 28 January)

Event Time Altitude Azimuth Distance (km) Brightness Sun altitude
Rises 04:29:07 0° 20° (NNE) 4,546 ? -31.7°
Reaches altitude 10° 04:31:58 10° 25° (NNE) 3,566 ? -31.2°
Maximum altitude 04:40:09 59° 104° (ESE) 1,646 ? -29.7°
Drops below altitude 10° 04:48:18 10° 182° (S) 3,560 ? -28.2°
Sets 04:51:09 0° 186° (S) 4,538 ? -27.7°
